Weather History for Warsaw, IN

Change the Weather History Date:

Thursday, January 31, 2013

  Actual Average Record
Temperature  
Mean Temperature 19 °F -  
Max Temperature 28 °F 31 °F 63 °F (1989)
Min Temperature 10 °F 15 °F -13 °F (1966)
Degree Days  
Heating Degree Days 46    
Moisture  
Dew Point 12 °F    
Average Humidity 75    
Maximum Humidity 86    
Minimum Humidity 58    
Precipitation  
Precipitation 0.00 in - - ()
Sea Level Pressure  
Sea Level Pressure 29.79 in    
Wind  
Wind Speed 21 mph (West)    
Max Wind Speed 26 mph    
Max Gust Speed 37 mph    
Visibility 8 miles    
Events Snow    
Averages and records for this station are not official NWS values.
T = Trace of Precipitation, MM = Missing Value Source: NWS Daily Summary

Daily Weather History Graph

Daily Weather History Graph

Search for Another Location

Airport:

Trip Planner

Search our weather history database for the weather conditions in past years. The results will help you decide how hot, cold, wet, or windy it might be!

Date:

Astronomy

Jan. 31, 2013 Rise Set
Actual Time 7:55 AM EST 5:58 PM EST
Civil Twilight 7:26 AM EST 6:28 PM EST
Nautical Twilight 6:52 AM EST 7:01 PM EST
Astronomical Twilight 6:20 AM EST 7:33 PM EST
Moon 11:04 PM EST 9:51 AM EST
Length of Visible Light 11h 02m
Length of Day
10h 03m
Waning Gibbous, 80% of the Moon is Illuminated
Jan 31
Waning Gibbous
Feb 3
Last Quarter
Feb 10
New
Feb 17
First Quarter
Feb 25
Full

Hourly Weather History & Observations

Time (EST) Temp. Windchill Dew Point Humidity Pressure Visibility Wind Dir Wind Speed Gust Speed Precip Events Conditions
12:15 AM 28.4 °F 13.8 °F 24.8 °F 86% 29.49 in 7.0 mi West 25.3 mph 36.8 mph N/A Snow Light Snow
12:35 AM 26.6 °F 11.4 °F 23.0 °F 86% 29.51 in 7.0 mi West 25.3 mph 33.4 mph N/A Snow Light Snow
12:55 AM 26.6 °F 12.4 °F 21.2 °F 80% 29.53 in 7.0 mi West 21.9 mph 33.4 mph N/A Snow Light Snow
1:15 AM 26.6 °F 11.7 °F 19.4 °F 74% 29.54 in 7.0 mi West 24.2 mph 32.2 mph N/A Snow Light Snow
1:35 AM 26.6 °F 12.0 °F 21.2 °F 80% 29.55 in 7.0 mi West 23.0 mph 26.5 mph N/A Snow Light Snow
1:55 AM 24.8 °F 9.6 °F 19.4 °F 80% 29.56 in 5.0 mi West 23.0 mph 33.4 mph N/A Snow Light Snow
2:15 AM 24.8 °F 11.1 °F 19.4 °F 80% 29.57 in 10.0 mi West 18.4 mph 26.5 mph N/A Snow Light Snow
2:35 AM 24.8 °F 10.7 °F 19.4 °F 80% 29.59 in 7.0 mi West 19.6 mph 29.9 mph N/A Snow Light Snow
2:55 AM 23.0 °F 6.3 °F 17.6 °F 80% 29.60 in 10.0 mi West 26.5 mph 32.2 mph N/A   Overcast
3:15 AM 23.0 °F 8.3 °F 17.6 °F 80% 29.61 in 7.0 mi West 19.6 mph 31.1 mph N/A Snow Light Snow
3:35 AM 23.0 °F 6.3 °F 15.8 °F 74% 29.62 in 10.0 mi West 26.5 mph 32.2 mph N/A Snow Light Snow
3:55 AM 23.0 °F 6.6 °F 15.8 °F 74% 29.63 in 10.0 mi West 25.3 mph 32.2 mph N/A   Overcast
4:15 AM 23.0 °F 8.7 °F 17.6 °F 80% 29.63 in 7.0 mi West 18.4 mph 24.2 mph N/A Snow Light Snow
4:35 AM 21.2 °F 6.0 °F 17.6 °F 86% 29.64 in 3.0 mi West 19.6 mph 25.3 mph N/A Snow Light Snow
4:55 AM 21.2 °F 4.2 °F 15.8 °F 80% 29.65 in 7.0 mi West 25.3 mph 31.1 mph N/A Snow Light Snow
5:15 AM 21.2 °F 5.6 °F 15.8 °F 80% 29.65 in 7.0 mi West 20.7 mph 26.5 mph N/A Snow Light Snow
5:35 AM 21.2 °F 5.2 °F 14.0 °F 74% 29.67 in 10.0 mi West 21.9 mph 33.4 mph N/A   Overcast
5:55 AM 21.2 °F 4.9 °F 14.0 °F 74% 29.68 in 7.0 mi West 23.0 mph 31.1 mph N/A Snow Light Snow
6:15 AM 19.4 °F 1.8 °F 14.0 °F 80% 29.68 in 10.0 mi West 25.3 mph 31.1 mph N/A Snow Light Snow
6:35 AM 19.4 °F 2.5 °F 12.2 °F 74% 29.68 in 10.0 mi West 23.0 mph 31.1 mph N/A Snow Light Snow
6:55 AM 19.4 °F 3.6 °F 12.2 °F 74% 29.70 in 10.0 mi West 19.6 mph 29.9 mph N/A Snow Light Snow
7:15 AM 19.4 °F 4.1 °F 12.2 °F 74% 29.71 in 4.0 mi West 18.4 mph 27.6 mph N/A Snow Light Snow
7:55 AM 19.4 °F 3.6 °F 10.4 °F 68% 29.72 in 10.0 mi West 19.6 mph 27.6 mph N/A   Overcast
8:15 AM 19.4 °F 2.8 °F 12.2 °F 74% 29.73 in 5.0 mi West 21.9 mph 29.9 mph N/A Snow Light Snow
8:35 AM 17.6 °F 1.3 °F 12.2 °F 79% 29.75 in 5.0 mi West 19.6 mph 27.6 mph N/A Snow Light Snow
8:55 AM 17.6 °F 1.7 °F 12.2 °F 79% 29.76 in 7.0 mi West 18.4 mph 26.5 mph N/A Snow Light Snow
9:15 AM 19.4 °F 3.2 °F 10.4 °F 68% 29.77 in 10.0 mi West 20.7 mph 29.9 mph N/A Snow Light Snow
9:35 AM 19.4 °F 5.0 °F 12.2 °F 74% 29.78 in 10.0 mi West 16.1 mph 27.6 mph N/A   Overcast
9:55 AM 19.4 °F 4.1 °F 14.0 °F 80% 29.78 in 4.0 mi West 18.4 mph 21.9 mph N/A Snow Light Snow
10:15 AM 19.4 °F 5.5 °F 14.0 °F 80% 29.79 in 2.0 mi West 15.0 mph 25.3 mph N/A Snow Light Snow
10:35 AM 19.4 °F 6.6 °F 15.8 °F 86% 29.79 in 1.2 mi WSW 12.7 mph - N/A Snow Light Snow
10:55 AM 19.4 °F 7.2 °F 15.8 °F 86% 29.80 in 3.0 mi West 11.5 mph 20.7 mph N/A Snow Light Snow
11:15 AM 21.2 °F 8.9 °F 15.8 °F 80% 29.80 in 4.0 mi West 12.7 mph 20.7 mph N/A Snow Light Snow
11:35 AM 23.0 °F 9.2 °F 15.8 °F 74% 29.81 in 10.0 mi West 17.3 mph 23.0 mph N/A Snow Light Snow
11:55 AM 21.2 °F 7.8 °F 14.0 °F 74% 29.81 in 10.0 mi West 15.0 mph - N/A   Overcast
12:15 PM 21.2 °F 6.4 °F 14.0 °F 74% 29.81 in 10.0 mi West 18.4 mph 21.9 mph N/A   Overcast
12:35 PM 21.2 °F 6.0 °F 14.0 °F 74% 29.81 in 10.0 mi West 19.6 mph 25.3 mph N/A Snow Light Snow
12:55 PM 21.2 °F 8.3 °F 17.6 °F 86% 29.81 in 0.8 mi West 13.8 mph 23.0 mph N/A Snow Light Snow
1:15 PM 21.2 °F 5.6 °F 17.6 °F 86% 29.81 in 1.0 mi West 20.7 mph 25.3 mph N/A Snow Light Snow
1:35 PM 21.2 °F 3.9 °F 12.2 °F 68% 29.82 in 10.0 mi West 26.5 mph 29.9 mph N/A Snow Light Snow
1:55 PM 21.2 °F 6.4 °F 12.2 °F 68% 29.82 in 10.0 mi West 18.4 mph 32.2 mph N/A   Overcast
2:15 PM 21.2 °F 6.4 °F 10.4 °F 63% 29.83 in 10.0 mi West 18.4 mph 29.9 mph N/A   Overcast
2:35 PM 21.2 °F 6.0 °F 10.4 °F 63% 29.83 in 10.0 mi West 19.6 mph 26.5 mph N/A   Overcast
2:55 PM 21.2 °F 5.6 °F 10.4 °F 63% 29.84 in 10.0 mi West 20.7 mph 25.3 mph N/A   Overcast
3:15 PM 19.4 °F 2.5 °F 10.4 °F 68% 29.85 in 10.0 mi West 23.0 mph 28.8 mph N/A   Overcast
3:35 PM 21.2 °F 4.5 °F 8.6 °F 58% 29.85 in 10.0 mi West 24.2 mph 29.9 mph N/A   Overcast
3:55 PM 19.4 °F 4.1 °F 10.4 °F 68% 29.85 in 10.0 mi West 18.4 mph 25.3 mph N/A   Overcast
4:15 PM 19.4 °F 4.5 °F 10.4 °F 68% 29.86 in 5.0 mi WNW 17.3 mph 24.2 mph N/A Snow Light Snow
4:35 PM 17.6 °F 2.2 °F 12.2 °F 79% 29.86 in 2.5 mi West 17.3 mph 23.0 mph N/A Snow Light Snow
4:55 PM 17.6 °F 1.7 °F 12.2 °F 79% 29.87 in 3.0 mi West 18.4 mph 24.2 mph N/A Snow Light Snow
5:15 PM 17.6 °F 1.7 °F 12.2 °F 79% 29.88 in 0.8 mi West 18.4 mph 24.2 mph N/A Snow Light Snow
5:35 PM 17.6 °F 2.7 °F 10.4 °F 73% 29.88 in 3.0 mi WNW 16.1 mph 23.0 mph N/A Snow Light Snow
5:55 PM 17.6 °F 2.7 °F 8.6 °F 68% 29.88 in 7.0 mi West 16.1 mph 27.6 mph N/A   Overcast
6:15 PM 17.6 °F 2.2 °F 6.8 °F 63% 29.89 in 10.0 mi West 17.3 mph 27.6 mph N/A   Overcast
6:35 PM 17.6 °F 2.2 °F 6.8 °F 63% 29.90 in 10.0 mi West 17.3 mph 23.0 mph N/A   Overcast
6:55 PM 15.8 °F 1.4 °F 8.6 °F 73% 29.92 in 10.0 mi West 13.8 mph - N/A   Overcast
7:15 PM 15.8 °F -0.2 °F 8.6 °F 73% 29.93 in 10.0 mi West 17.3 mph 23.0 mph N/A   Overcast
7:35 PM 15.8 °F -0.6 °F 8.6 °F 73% 29.93 in 5.0 mi West 18.4 mph 23.0 mph N/A Snow Light Snow
7:55 PM 15.8 °F 0.3 °F 6.8 °F 68% 29.94 in 10.0 mi West 16.1 mph 23.0 mph N/A   Overcast
8:15 PM 14.0 °F -3.9 °F 8.6 °F 79% 29.95 in 7.0 mi West 20.7 mph 25.3 mph N/A Snow Light Snow
8:35 PM 14.0 °F -2.0 °F 8.6 °F 79% 29.96 in 5.0 mi West 16.1 mph 23.0 mph N/A Snow Light Snow
8:55 PM 14.0 °F -3.4 °F 8.6 °F 79% 29.96 in 10.0 mi West 19.6 mph 25.3 mph N/A   Overcast
9:15 PM 14.0 °F -2.5 °F 8.6 °F 79% 29.96 in 10.0 mi West 17.3 mph - N/A   Overcast
9:35 PM 14.0 °F -0.2 °F 8.6 °F 79% 29.97 in 5.0 mi West 12.7 mph - N/A Snow Light Snow
9:55 PM 12.2 °F -6.7 °F 5.0 °F 73% 29.98 in 10.0 mi WNW 21.9 mph 25.3 mph N/A   Overcast
10:15 PM 12.2 °F -5.8 °F 5.0 °F 73% 29.99 in 7.0 mi West 19.6 mph 26.5 mph N/A   Overcast
10:35 PM 12.2 °F -5.8 °F 3.2 °F 67% 29.99 in 10.0 mi West 19.6 mph 27.6 mph N/A   Overcast
10:55 PM 12.2 °F -7.1 °F 3.2 °F 67% 30.00 in 10.0 mi West 23.0 mph 27.6 mph N/A   Overcast
11:15 PM 10.4 °F -7.2 °F 3.2 °F 73% 30.01 in 10.0 mi West 17.3 mph 26.5 mph N/A Snow Light Snow
11:35 PM 10.4 °F -7.2 °F 3.2 °F 73% 30.02 in 10.0 mi West 17.3 mph 27.6 mph N/A   Overcast
11:55 PM 10.4 °F -8.6 °F 3.2 °F 73% 30.03 in 10.0 mi West 20.7 mph 28.8 mph N/A   Mostly Cloudy